| time (UTC) | temp C | wind direction | speed KPH | gust KPH | rain 1hr cm | rain 24hr cm | rain mn cm | humidity % | barometer mb |
| 20260507000536 | 18 | 202 | 0.0 | 4.8 | 0.00 | 0.36 | 0.36 | 83 | 1008.0 |
| 20260507000047 | 18 | 172 | 1.6 | 4.8 | 0.00 | 0.36 | 0.36 | 83 | 1008.0 |
| 20260506235534 | 18 | 169 | 1.6 | 4.8 | 0.00 | 0.36 | 0.36 | 83 | 1008.0 |
| 20260506235033 | 18 | 181 | 0.0 | 4.8 | 0.00 | 0.36 | 0.36 | 83 | 1008.0 |
| 20260506234551 | 18 | 0 | 0.0 | 4.8 | 0.00 | 0.36 | 0.36 | 83 | 1008.0 |
| 20260506234031 | 18 | 186 | 0.0 | 3.2 | 0.00 | 0.36 | 0.36 | 83 | 1007.9 |
| 20260506233532 | 18 | 0 | 0.0 | 4.8 | 0.00 | 0.36 | 0.36 | 83 | 1008.0 |
| 20260506233051 | 18 | 182 | 0.0 | 4.8 | 0.00 | 0.36 | 0.36 | 82 | 1007.8 |
| 20260506232531 | 18 | 0 | 0.0 | 4.8 | 0.00 | 0.36 | 0.36 | 82 | 1007.8 |
| 20260506232031 | 18 | 0 | 0.0 | 4.8 | 0.00 | 0.36 | 0.36 | 82 | 1007.8 |
| 20260506231545 | 18 | 0 | 0.0 | 4.8 | 0.00 | 0.36 | 0.36 | 82 | 1007.9 |
| 20260506231033 | 18 | 0 | 0.0 | 4.8 | 0.00 | 0.36 | 0.36 | 82 | 1007.8 |
| 20260506230532 | 18 | 0 | 0.0 | 4.8 | 0.00 | 0.36 | 0.36 | 82 | 1008.0 |
| 20260506230056 | 18 | 0 | 0.0 | 4.8 | 0.00 | 0.36 | 0.36 | 82 | 1007.9 |
| 20260506225531 | 18 | 201 | 0.0 | 6.4 | 0.00 | 0.36 | 0.36 | 82 | 1007.7 |
| 20260506225032 | 18 | 201 | 1.6 | 6.4 | 0.00 | 0.36 | 0.36 | 82 | 1007.9 |
| 20260506224546 | 18 | 180 | 1.6 | 8.0 | 0.00 | 0.36 | 0.36 | 82 | 1007.8 |
| 20260506224030 | 18 | 219 | 1.6 | 8.0 | 0.00 | 0.36 | 0.36 | 82 | 1007.3 |
| 20260506223530 | 18 | 89 | 1.6 | 8.0 | 0.00 | 0.36 | 0.36 | 82 | 1007.5 |
| 20260506223044 | 18 | 184 | 1.6 | 8.0 | 0.00 | 0.36 | 0.36 | 83 | 1007.6 |
| 20260506222534 | 18 | 0 | 1.6 | 8.0 | 0.00 | 0.36 | 0.36 | 83 | 1007.7 |
| 20260506222033 | 18 | 210 | 1.6 | 8.0 | 0.00 | 0.36 | 0.36 | 83 | 1007.8 |
| 20260506221557 | 18 | 166 | 1.6 | 6.4 | 0.00 | 0.36 | 0.36 | 84 | 1007.7 |
| 20260506221031 | 18 | 0 | 1.6 | 8.0 | 0.00 | 0.36 | 0.36 | 85 | 1007.8 |
| 20260506220531 | 18 | 187 | 3.2 | 8.0 | 0.00 | 0.36 | 0.36 | 85 | 1007.8 |
| 20260506220043 | 18 | 173 | 1.6 | 6.4 | 0.00 | 0.36 | 0.36 | 86 | 1007.8 |
| 20260506215535 | 18 | 195 | 1.6 | 4.8 | 0.00 | 0.36 | 0.36 | 85 | 1007.7 |
| 20260506215031 | 18 | 0 | 0.0 | 8.0 | 0.00 | 0.36 | 0.36 | 86 | 1007.6 |
| 20260506214543 | 18 | 0 | 1.6 | 8.0 | 0.00 | 0.36 | 0.36 | 86 | 1007.5 |
| 20260506214031 | 17 | 188 | 1.6 | 8.0 | 0.00 | 0.36 | 0.36 | 86 | 1007.5 |
| 20260506213535 | 17 | 171 | 0.0 | 3.2 | 0.00 | 0.36 | 0.36 | 86 | 1007.4 |
| 20260506213047 | 17 | 0 | 0.0 | 4.8 | 0.00 | 0.36 | 0.36 | 86 | 1007.4 |
| 20260506212534 | 17 | 192 | 0.0 | 6.4 | 0.00 | 0.36 | 0.36 | 87 | 1007.5 |
| 20260506212032 | 17 | 184 | 1.6 | 6.4 | 0.00 | 0.36 | 0.36 | 87 | 1007.4 |
| 20260506211546 | 17 | 0 | 0.0 | 4.8 | 0.00 | 0.36 | 0.36 | 87 | 1007.5 |
| 20260506211031 | 17 | 158 | 0.0 | 8.0 | 0.00 | 0.36 | 0.36 | 87 | 1007.5 |
| 20260506210534 | 17 | 178 | 1.6 | 8.0 | 0.00 | 0.36 | 0.36 | 87 | 1007.4 |
| 20260506210053 | 17 | 0 | 1.6 | 8.0 | 0.00 | 0.36 | 0.36 | 88 | 1007.4 |
| 20260506205530 | 17 | 0 | 0.0 | 6.4 | 0.00 | 0.36 | 0.36 | 88 | 1007.4 |
| 20260506205030 | 17 | 229 | 1.6 | 6.4 | 0.00 | 0.36 | 0.36 | 88 | 1007.3 |
| 20260506204546 | 17 | 186 | 1.6 | 8.0 | 0.00 | 0.36 | 0.36 | 88 | 1007.3 |
| 20260506204031 | 17 | 0 | 1.6 | 11.3 | 0.00 | 0.36 | 0.36 | 89 | 1007.2 |
| 20260506203531 | 17 | 183 | 3.2 | 11.3 | 0.00 | 0.36 | 0.36 | 89 | 1007.3 |
| 20260506203042 | 17 | 207 | 3.2 | 11.3 | 0.00 | 0.36 | 0.36 | 89 | 1007.2 |
| 20260506202534 | 17 | 159 | 3.2 | 11.3 | 0.00 | 0.36 | 0.36 | 90 | 1007.2 |
| 20260506202034 | 17 | 175 | 1.6 | 8.0 | 0.00 | 0.36 | 0.36 | 90 | 1007.0 |
| 20260506201544 | 16 | 203 | 3.2 | 8.0 | 0.00 | 0.36 | 0.36 | 91 | 1007.0 |
| 20260506201032 | 16 | 200 | 1.6 | 8.0 | 0.00 | 0.36 | 0.36 | 91 | 1007.2 |
| 20260506200530 | 16 | 164 | 1.6 | 6.4 | 0.00 | 0.36 | 0.36 | 91 | 1007.4 |
| 20260506200049 | 16 | 198 | 0.0 | 4.8 | 0.00 | 0.36 | 0.36 | 91 | 1007.4 |
| 20260506195531 | 16 | 185 | 0.0 | 4.8 | 0.00 | 0.36 | 0.36 | 91 | 1007.5 |
| 20260506195034 | 16 | 202 | 0.0 | 6.4 | 0.00 | 0.36 | 0.36 | 91 | 1007.6 |
| 20260506194544 | 16 | 205 | 0.0 | 6.4 | 0.00 | 0.36 | 0.36 | 90 | 1007.6 |
| 20260506194031 | 16 | 0 | 0.0 | 6.4 | 0.00 | 0.36 | 0.36 | 90 | 1007.7 |
| 20260506193531 | 16 | 197 | 0.0 | 8.0 | 0.00 | 0.36 | 0.36 | 90 | 1007.8 |
| 20260506193045 | 16 | 209 | 3.2 | 8.0 | 0.00 | 0.36 | 0.36 | 90 | 1007.8 |
| 20260506192533 | 16 | 0 | 1.6 | 9.7 | 0.00 | 0.36 | 0.36 | 90 | 1007.9 |
| 20260506192031 | 16 | 0 | 1.6 | 9.7 | 0.00 | 0.36 | 0.36 | 90 | 1008.0 |
| 20260506191541 | 16 | 192 | 3.2 | 9.7 | 0.00 | 0.36 | 0.36 | 89 | 1008.0 |
| 20260506191032 | 16 | 192 | 1.6 | 8.0 | 0.00 | 0.36 | 0.36 | 89 | 1008.0 |
| 20260506190532 | 16 | 215 | 3.2 | 11.3 | 0.00 | 0.36 | 0.36 | 89 | 1008.2 |
| 20260506190052 | 16 | 186 | 3.2 | 11.3 | 0.00 | 0.36 | 0.36 | 88 | 1008.3 |
| 20260506185534 | 16 | 207 | 4.8 | 9.7 | 0.00 | 0.36 | 0.36 | 88 | 1008.2 |
| 20260506185031 | 16 | 0 | 3.2 | 9.7 | 0.00 | 0.36 | 0.36 | 88 | 1008.2 |
| 20260506184550 | 16 | 200 | 3.2 | 8.0 | 0.03 | 0.36 | 0.36 | 88 | 1008.1 |
| 20260506184035 | 16 | 172 | 3.2 | 9.7 | 0.03 | 0.36 | 0.36 | 88 | 1008.2 |
| 20260506183534 | 16 | 200 | 1.6 | 9.7 | 0.03 | 0.36 | 0.36 | 88 | 1008.1 |
| 20260506183103 | 16 | 198 | 4.8 | 11.3 | 0.03 | 0.36 | 0.36 | 88 | 1008.1 |
| 20260506182533 | 16 | 232 | 3.2 | 11.3 | 0.03 | 0.36 | 0.36 | 88 | 1008.1 |
| 20260506182030 | 16 | 198 | 3.2 | 11.3 | 0.03 | 0.36 | 0.36 | 88 | 1008.1 |
| 20260506181556 | 16 | 311 | 6.4 | 11.3 | 0.03 | 0.36 | 0.36 | 88 | 1008.2 |
| 20260506181034 | 16 | 193 | 3.2 | 11.3 | 0.03 | 0.36 | 0.36 | 88 | 1008.3 |
| 20260506180533 | 16 | 213 | 3.2 | 11.3 | 0.03 | 0.36 | 0.36 | 88 | 1008.2 |
| 20260506180050 | 16 | 171 | 3.2 | 11.3 | 0.03 | 0.36 | 0.36 | 88 | 1008.2 |
| 20260506175534 | 16 | 195 | 3.2 | 11.3 | 0.03 | 0.36 | 0.36 | 88 | 1008.3 |
| 20260506175031 | 16 | 246 | 4.8 | 11.3 | 0.03 | 0.36 | 0.36 | 88 | 1008.5 |
| 20260506174548 | 16 | 173 | 3.2 | 9.7 | 0.00 | 0.33 | 0.33 | 88 | 1008.6 |
| 20260506174031 | 17 | 193 | 0.0 | 6.4 | 0.03 | 0.33 | 0.33 | 88 | 1008.5 |
| 20260506173531 | 17 | 215 | 1.6 | 11.3 | 0.03 | 0.33 | 0.33 | 88 | 1008.6 |
| 20260506173049 | 17 | 190 | 1.6 | 11.3 | 0.03 | 0.33 | 0.33 | 88 | 1008.7 |
| 20260506172534 | 17 | 210 | 4.8 | 11.3 | 0.05 | 0.33 | 0.33 | 88 | 1008.7 |
| 20260506172034 | 17 | 184 | 3.2 | 9.7 | 0.05 | 0.33 | 0.33 | 89 | 1008.5 |
| 20260506171544 | 17 | 182 | 3.2 | 9.7 | 0.08 | 0.33 | 0.33 | 89 | 1008.7 |
| 20260506171035 | 17 | 278 | 3.2 | 8.0 | 0.08 | 0.33 | 0.33 | 90 | 1008.5 |
| 20260506170534 | 17 | 201 | 1.6 | 8.0 | 0.10 | 0.33 | 0.33 | 90 | 1008.4 |
| 20260506170052 | 17 | 0 | 1.6 | 4.8 | 0.13 | 0.33 | 0.33 | 90 | 1008.4 |
| 20260506165534 | 16 | 202 | 0.0 | 8.0 | 0.15 | 0.33 | 0.33 | 89 | 1008.4 |
| 20260506165033 | 16 | 181 | 1.6 | 9.7 | 0.18 | 0.33 | 0.33 | 89 | 1008.5 |
| 20260506164555 | 16 | 196 | 1.6 | 9.7 | 0.20 | 0.33 | 0.33 | 88 | 1008.6 |
| 20260506164032 | 16 | 210 | 1.6 | 11.3 | 0.20 | 0.30 | 0.30 | 88 | 1008.5 |
| 20260506163532 | 16 | 180 | 1.6 | 11.3 | 0.20 | 0.30 | 0.30 | 88 | 1008.7 |
| 20260506163056 | 16 | 182 | 4.8 | 11.3 | 0.23 | 0.30 | 0.30 | 87 | 1009.0 |
| 20260506162537 | 16 | 172 | 1.6 | 6.4 | 0.20 | 0.28 | 0.28 | 87 | 1009.3 |
| 20260506162034 | 16 | 163 | 1.6 | 8.0 | 0.20 | 0.25 | 0.25 | 87 | 1009.5 |
| 20260506161547 | 16 | 196 | 1.6 | 8.0 | 0.20 | 0.25 | 0.25 | 86 | 1009.7 |
| 20260506161034 | 16 | 185 | 1.6 | 6.4 | 0.20 | 0.25 | 0.25 | 86 | 1009.7 |
| 20260506160534 | 17 | 202 | 3.2 | 6.4 | 0.18 | 0.23 | 0.23 | 85 | 1009.8 |
| 20260506160056 | 17 | 169 | 1.6 | 6.4 | 0.18 | 0.20 | 0.20 | 85 | 1009.9 |
| 20260506155534 | 17 | 211 | 1.6 | 6.4 | 0.18 | 0.18 | 0.18 | 84 | 1009.9 |
| 20260506155034 | 17 | 0 | 0.0 | 6.4 | 0.15 | 0.15 | 0.15 | 84 | 1009.8 |
| 20260506154553 | 17 | 180 | 1.6 | 6.4 | 0.13 | 0.13 | 0.13 | 83 | 1010.1 |
| 20260506154034 | 17 | 198 | 1.6 | 8.0 | 0.10 | 0.10 | 0.10 | 83 | 1010.1 |
| 20260506153534 | 17 | 200 | 1.6 | 8.0 | 0.10 | 0.10 | 0.10 | 82 | 1010.0 |
| 20260506153044 | 17 | 193 | 1.6 | 9.7 | 0.08 | 0.08 | 0.08 | 82 | 1009.9 |
| 20260506152533 | 17 | 198 | 3.2 | 9.7 | 0.08 | 0.08 | 0.08 | 81 | 1009.8 |
| 20260506152036 | 18 | 201 | 1.6 | 9.7 | 0.05 | 0.05 | 0.05 | 81 | 1009.7 |
| 20260506151544 | 18 | 188 | 1.6 | 6.4 | 0.05 | 0.05 | 0.05 | 81 | 1009.7 |
| 20260506151033 | 18 | 192 | 0.0 | 6.4 | 0.05 | 0.05 | 0.05 | 80 | 1009.7 |
| 20260506150533 | 18 | 180 | 0.0 | 4.8 | 0.05 | 0.05 | 0.05 | 79 | 1009.8 |
| 20260506150053 | 18 | 187 | 1.6 | 9.7 | 0.03 | 0.03 | 0.03 | 77 | 1009.9 |
| 20260506145534 | 18 | 183 | 3.2 | 11.3 | 0.00 | 0.00 | 0.00 | 76 | 1009.8 |
| 20260506145035 | 18 | 198 | 6.4 | 12.9 | 0.00 | 0.00 | 0.00 | 74 | 1009.7 |
| 20260506144550 | 18 | 201 | 3.2 | 12.9 | 0.00 | 0.00 | 0.00 | 73 | 1010.0 |
| 20260506144035 | 19 | 194 | 4.8 | 16.1 | 0.00 | 0.00 | 0.00 | 72 | 1010.0 |
| 20260506143534 | 19 | 191 | 3.2 | 16.1 | 0.00 | 0.00 | 0.00 | 71 | 1010.0 |
| 20260506143043 | 19 | 221 | 6.4 | 17.7 | 0.00 | 0.00 | 0.00 | 70 | 1009.9 |
| 20260506142533 | 19 | 169 | 8.0 | 20.9 | 0.00 | 0.00 | 0.00 | 69 | 1009.9 |
| 20260506142030 | 20 | 210 | 9.7 | 20.9 | 0.00 | 0.00 | 0.00 | 69 | 1009.8 |
| 20260506141545 | 20 | 186 | 6.4 | 19.3 | 0.00 | 0.00 | 0.00 | 70 | 1009.9 |
| 20260506141031 | 20 | 159 | 4.8 | 12.9 | 0.00 | 0.00 | 0.00 | 70 | 1009.8 |
| 20260506140535 | 20 | 199 | 6.4 | 16.1 | 0.00 | 0.00 | 0.00 | 71 | 1009.7 |
| 20260506140044 | 19 | 215 | 6.4 | 16.1 | 0.00 | 0.00 | 0.00 | 71 | 1009.4 |
| 20260506135536 | 19 | 186 | 4.8 | 16.1 | 0.00 | 0.00 | 0.00 | 72 | 1009.6 |
| 20260506135036 | 19 | 180 | 3.2 | 12.9 | 0.00 | 0.00 | 0.00 | 72 | 1009.7 |
| 20260506134544 | 19 | 187 | 4.8 | 14.5 | 0.00 | 0.00 | 0.00 | 72 | 1009.7 |
| 20260506134030 | 19 | 207 | 6.4 | 14.5 | 0.00 | 0.00 | 0.00 | 71 | 1009.8 |
| 20260506133530 | 19 | 197 | 3.2 | 12.9 | 0.00 | 0.00 | 0.00 | 72 | 1009.6 |
| 20260506133106 | 19 | 204 | 4.8 | 16.1 | 0.00 | 0.00 | 0.00 | 72 | 1009.7 |
| 20260506132534 | 19 | 171 | 4.8 | 16.1 | 0.00 | 0.00 | 0.00 | 72 | 1009.7 |
| 20260506132034 | 19 | 181 | 1.6 | 12.9 | 0.00 | 0.00 | 0.00 | 72 | 1009.9 |
| 20260506131547 | 19 | 175 | 4.8 | 12.9 | 0.00 | 0.00 | 0.00 | 72 | 1010.0 |
| 20260506131034 | 19 | 136 | 3.2 | 12.9 | 0.00 | 0.00 | 0.00 | 73 | 1009.9 |
| 20260506130533 | 18 | 194 | 3.2 | 16.1 | 0.00 | 0.00 | 0.00 | 73 | 1009.9 |
| 20260506130046 | 18 | 63 | 4.8 | 16.1 | 0.00 | 0.00 | 0.00 | 74 | 1009.9 |
| 20260506125533 | 18 | 203 | 3.2 | 12.9 | 0.00 | 0.00 | 0.00 | 74 | 1009.8 |
| 20260506125033 | 18 | 168 | 4.8 | 14.5 | 0.00 | 0.00 | 0.00 | 74 | 1009.8 |
| 20260506124544 | 18 | 204 | 3.2 | 14.5 | 0.00 | 0.00 | 0.00 | 74 | 1009.9 |
| 20260506124033 | 18 | 186 | 6.4 | 14.5 | 0.00 | 0.00 | 0.00 | 74 | 1009.8 |
| 20260506123535 | 18 | 161 | 4.8 | 11.3 | 0.00 | 0.00 | 0.00 | 74 | 1009.7 |
| 20260506123052 | 18 | 189 | 1.6 | 11.3 | 0.00 | 0.00 | 0.00 | 75 | 1009.7 |
| 20260506122531 | 18 | 156 | 4.8 | 11.3 | 0.00 | 0.00 | 0.00 | 74 | 1009.7 |
| 20260506122033 | 18 | 104 | 3.2 | 12.9 | 0.00 | 0.00 | 0.00 | 75 | 1009.7 |
| 20260506121548 | 18 | 200 | 4.8 | 14.5 | 0.00 | 0.00 | 0.00 | 75 | 1009.8 |
| 20260506121030 | 18 | 178 | 4.8 | 14.5 | 0.00 | 0.00 | 0.00 | 75 | 1009.9 |
| 20260506120534 | 17 | 208 | 4.8 | 11.3 | 0.00 | 0.00 | 0.00 | 75 | 1009.8 |
| 20260506120059 | 17 | 189 | 1.6 | 9.7 | 0.00 | 0.00 | 0.00 | 76 | 1009.9 |
| 20260506115533 | 17 | 176 | 1.6 | 9.7 | 0.00 | 0.00 | 0.00 | 76 | 1009.8 |
| 20260506115033 | 17 | 227 | 3.2 | 11.3 | 0.00 | 0.00 | 0.00 | 76 | 1009.8 |
| 20260506114544 | 17 | 165 | 4.8 | 11.3 | 0.00 | 0.00 | 0.00 | 76 | 1009.8 |
| 20260506114031 | 17 | 202 | 4.8 | 12.9 | 0.00 | 0.00 | 0.00 | 76 | 1009.8 |
| 20260506113532 | 17 | 189 | 4.8 | 12.9 | 0.00 | 0.00 | 0.00 | 76 | 1009.9 |
| 20260506113048 | 17 | 199 | 4.8 | 14.5 | 0.00 | 0.00 | 0.00 | 76 | 1010.0 |
| 20260506112530 | 17 | 166 | 6.4 | 14.5 | 0.00 | 0.00 | 0.00 | 76 | 1010.1 |
| 20260506112030 | 17 | 173 | 4.8 | 16.1 | 0.00 | 0.00 | 0.00 | 76 | 1009.9 |
| 20260506111547 | 17 | 176 | 6.4 | 16.1 | 0.00 | 0.00 | 0.00 | 76 | 1009.7 |
| 20260506111033 | 17 | 94 | 3.2 | 12.9 | 0.00 | 0.00 | 0.00 | 77 | 1009.8 |
| 20260506110534 | 17 | 187 | 4.8 | 12.9 | 0.00 | 0.00 | 0.00 | 77 | 1009.7 |
| 20260506110056 | 17 | 180 | 3.2 | 11.3 | 0.00 | 0.00 | 0.00 | 77 | 1009.8 |
| 20260506105535 | 17 | 189 | 3.2 | 14.5 | 0.00 | 0.00 | 0.00 | 77 | 1009.8 |
| 20260506105033 | 17 | 206 | 4.8 | 14.5 | 0.00 | 0.00 | 0.00 | 77 | 1009.7 |
| 20260506104558 | 17 | 177 | 3.2 | 12.9 | 0.00 | 0.00 | 0.00 | 78 | 1009.7 |
| 20260506104032 | 17 | 175 | 4.8 | 14.5 | 0.00 | 0.00 | 0.00 | 78 | 1009.6 |
| 20260506103534 | 17 | 169 | 3.2 | 14.5 | 0.00 | 0.00 | 0.00 | 78 | 1009.7 |
| 20260506103047 | 17 | 209 | 3.2 | 14.5 | 0.00 | 0.00 | 0.00 | 78 | 1009.5 |
| 20260506102533 | 17 | 223 | 3.2 | 9.7 | 0.00 | 0.00 | 0.00 | 78 | 1009.7 |
| 20260506102034 | 17 | 194 | 1.6 | 8.0 | 0.00 | 0.00 | 0.00 | 78 | 1009.6 |
| 20260506101545 | 17 | 150 | 3.2 | 9.7 | 0.00 | 0.00 | 0.00 | 78 | 1009.6 |
| 20260506101033 | 17 | 163 | 3.2 | 9.7 | 0.00 | 0.00 | 0.00 | 78 | 1009.7 |
| 20260506100533 | 17 | 182 | 3.2 | 8.0 | 0.00 | 0.00 | 0.00 | 78 | 1009.7 |
| 20260506100053 | 17 | 194 | 1.6 | 9.7 | 0.00 | 0.00 | 0.00 | 77 | 1009.7 |
| 20260506095535 | 17 | 163 | 3.2 | 11.3 | 0.00 | 0.00 | 0.00 | 77 | 1009.7 |
| 20260506095030 | 17 | 173 | 3.2 | 11.3 | 0.00 | 0.00 | 0.00 | 77 | 1009.5 |
| 20260506094545 | 17 | 194 | 3.2 | 11.3 | 0.00 | 0.00 | 0.00 | 77 | 1009.5 |
| 20260506094029 | 17 | 180 | 4.8 | 11.3 | 0.00 | 0.00 | 0.00 | 78 | 1009.5 |
| 20260506093529 | 17 | 173 | 3.2 | 9.7 | 0.00 | 0.00 | 0.00 | 78 | 1009.5 |
| 20260506093041 | 17 | 163 | 3.2 | 12.9 | 0.00 | 0.00 | 0.00 | 78 | 1009.5 |
| 20260506092529 | 17 | 206 | 1.6 | 14.5 | 0.00 | 0.00 | 0.00 | 78 | 1009.5 |
| 20260506092029 | 17 | 202 | 4.8 | 14.5 | 0.00 | 0.00 | 0.00 | 78 | 1009.4 |
| 20260506091546 | 17 | 226 | 3.2 | 9.7 | 0.00 | 0.00 | 0.00 | 78 | 1009.6 |
| 20260506091029 | 17 | 182 | 1.6 | 9.7 | 0.00 | 0.00 | 0.00 | 78 | 1009.7 |
| 20260506090528 | 17 | 202 | 0.0 | 9.7 | 0.00 | 0.00 | 0.00 | 78 | 1009.6 |
| 20260506090045 | 17 | 184 | 1.6 | 9.7 | 0.00 | 0.00 | 0.00 | 78 | 1009.7 |
| 20260506085532 | 17 | 180 | 0.0 | 8.0 | 0.00 | 0.00 | 0.00 | 78 | 1009.8 |
| 20260506085029 | 17 | 188 | 1.6 | 8.0 | 0.00 | 0.00 | 0.00 | 77 | 1009.7 |
| 20260506084614 | 17 | 194 | 3.2 | 8.0 | 0.00 | 0.00 | 0.00 | 77 | 1009.7 |
| 20260506084029 | 17 | 167 | 1.6 | 8.0 | 0.00 | 0.00 | 0.00 | 77 | 1009.6 |
| 20260506083532 | 17 | 200 | 1.6 | 9.7 | 0.00 | 0.00 | 0.00 | 77 | 1009.8 |
| 20260506083045 | 17 | 192 | 3.2 | 9.7 | 0.00 | 0.00 | 0.00 | 77 | 1009.8 |
| 20260506082530 | 17 | 202 | 3.2 | 9.7 | 0.00 | 0.00 | 0.00 | 76 | 1009.7 |
| 20260506082029 | 17 | 106 | 3.2 | 11.3 | 0.00 | 0.00 | 0.00 | 76 | 1009.7 |
| 20260506081552 | 17 | 180 | 4.8 | 11.3 | 0.00 | 0.00 | 0.00 | 76 | 1009.8 |
| 20260506081034 | 17 | 192 | 3.2 | 8.0 | 0.00 | 0.00 | 0.00 | 76 | 1009.8 |
| 20260506080531 | 17 | 156 | 1.6 | 11.3 | 0.00 | 0.00 | 0.00 | 75 | 1009.8 |
| 20260506073045 | 18 | 192 | 3.2 | 9.7 | 0.00 | 0.00 | 0.00 | 75 | 1009.9 |
| 20260506072531 | 18 | 190 | 3.2 | 8.0 | 0.00 | 0.00 | 0.00 | 75 | 1009.9 |
| 20260506072030 | 18 | 162 | 3.2 | 8.0 | 0.00 | 0.00 | 0.00 | 75 | 1009.8 |
| 20260506071546 | 18 | 163 | 3.2 | 8.0 | 0.00 | 0.00 | 0.00 | 75 | 1009.9 |
| 20260506071030 | 18 | 189 | 1.6 | 9.7 | 0.00 | 0.00 | 0.00 | 74 | 1010.0 |
| 20260506070530 | 18 | 181 | 3.2 | 12.9 | 0.00 | 0.00 | 0.00 | 74 | 1010.0 |
| 20260506062031 | 18 | 182 | 0.0 | 8.0 | 0.00 | 0.00 | 0.00 | 72 | 1010.3 |
| 20260506061543 | 18 | 173 | 0.0 | 8.0 | 0.00 | 0.00 | 0.00 | 72 | 1010.3 |
| 20260506061031 | 18 | 202 | 1.6 | 8.0 | 0.00 | 0.00 | 0.00 | 72 | 1010.3 |
| 20260506060531 | 18 | 182 | 1.6 | 8.0 | 0.00 | 0.00 | 0.00 | 72 | 1010.3 |
| 20260506051031 | 18 | 188 | 1.6 | 8.0 | 0.00 | 0.00 | 0.00 | 70 | 1010.8 |
| 20260506050530 | 18 | 0 | 1.6 | 8.0 | 0.00 | 0.00 | 0.00 | 69 | 1010.8 |
| 20260506045031 | 18 | 221 | 1.6 | 8.0 | 0.00 | 0.00 | 0.00 | 68 | 1010.8 |
| 20260506044545 | 18 | 166 | 1.6 | 8.0 | 0.00 | 0.00 | 0.00 | 68 | 1010.9 |
| 20260506044030 | 18 | 0 | 1.6 | 6.4 | 0.00 | 0.00 | 0.00 | 68 | 1010.8 |
| 20260506043534 | 18 | 0 | 0.0 | 4.8 | 0.00 | 0.00 | 0.00 | 67 | 1010.8 |
| 20260506043048 | 18 | 0 | 0.0 | 4.8 | 0.00 | 0.00 | 0.00 | 67 | 1010.8 |
| 20260506042535 | 18 | 0 | 0.0 | 4.8 | 0.00 | 0.00 | 0.00 | 66 | 1010.8 |
| 20260506042031 | 18 | 186 | 0.0 | 6.4 | 0.00 | 0.00 | 0.00 | 66 | 1010.9 |
| 20260506041548 | 18 | 145 | 1.6 | 6.4 | 0.00 | 0.00 | 0.00 | 66 | 1010.7 |
| 20260506041031 | 19 | 162 | 3.2 | 6.4 | 0.00 | 0.00 | 0.00 | 65 | 1010.9 |
| 20260506040535 | 19 | 0 | 0.0 | 8.0 | 0.00 | 0.00 | 0.00 | 65 | 1010.8 |
| 20260506040046 | 19 | 0 | 0.0 | 8.0 | 0.00 | 0.00 | 0.00 | 65 | 1010.8 |
| 20260506035535 | 19 | 167 | 1.6 | 6.4 | 0.00 | 0.00 | 0.00 | 64 | 1010.8 |
| 20260506035030 | 19 | 193 | 1.6 | 6.4 | 0.00 | 0.00 | 0.00 | 64 | 1010.7 |
| 20260506034545 | 19 | 187 | 1.6 | 8.0 | 0.00 | 0.00 | 0.00 | 64 | 1010.8 |
| 20260506034034 | 19 | 188 | 1.6 | 8.0 | 0.00 | 0.00 | 0.00 | 64 | 1010.8 |
| 20260506033530 | 19 | 191 | 1.6 | 8.0 | 0.00 | 0.00 | 0.00 | 63 | 1010.7 |
| 20260506033044 | 19 | 203 | 1.6 | 8.0 | 0.00 | 0.00 | 0.00 | 63 | 1010.6 |
| 20260506032531 | 19 | 188 | 3.2 | 8.0 | 0.00 | 0.00 | 0.00 | 63 | 1010.7 |
| 20260506032031 | 20 | 173 | 1.6 | 11.3 | 0.00 | 0.00 | 0.00 | 63 | 1010.7 |
| 20260506031547 | 20 | 0 | 1.6 | 11.3 | 0.00 | 0.00 | 0.00 | 62 | 1010.6 |
| 20260506031030 | 20 | 184 | 1.6 | 11.3 | 0.00 | 0.00 | 0.00 | 62 | 1010.6 |
| 20260506030532 | 20 | 166 | 1.6 | 8.0 | 0.00 | 0.00 | 0.00 | 62 | 1010.7 |
| 20260506030044 | 20 | 0 | 3.2 | 8.0 | 0.00 | 0.00 | 0.00 | 62 | 1010.7 |
| 20260506025530 | 20 | 172 | 3.2 | 9.7 | 0.00 | 0.00 | 0.00 | 61 | 1010.7 |
| 20260506025031 | 20 | 0 | 3.2 | 9.7 | 0.00 | 0.00 | 0.00 | 61 | 1010.8 |
| 20260506024545 | 20 | 194 | 3.2 | 9.7 | 0.00 | 0.00 | 0.00 | 61 | 1010.8 |
| 20260506024030 | 20 | 192 | 3.2 | 9.7 | 0.00 | 0.00 | 0.00 | 61 | 1010.8 |
| 20260506023532 | 20 | 159 | 4.8 | 11.3 | 0.00 | 0.00 | 0.00 | 61 | 1010.8 |
| 20260506023100 | 20 | 187 | 1.6 | 11.3 | 0.00 | 0.00 | 0.00 | 60 | 1010.7 |
| 20260506022530 | 20 | 167 | 3.2 | 9.7 | 0.00 | 0.00 | 0.00 | 60 | 1010.8 |
| 20260506022030 | 20 | 205 | 1.6 | 9.7 | 0.00 | 0.00 | 0.00 | 59 | 1010.7 |
| 20260506021604 | 21 | 193 | 1.6 | 9.7 | 0.00 | 0.00 | 0.00 | 59 | 1010.7 |
| 20260506021035 | 21 | 191 | 3.2 | 9.7 | 0.00 | 0.00 | 0.00 | 58 | 1010.7 |
| 20260506020530 | 21 | 170 | 3.2 | 9.7 | 0.00 | 0.00 | 0.00 | 57 | 1010.7 |
| 20260506020044 | 21 | 205 | 3.2 | 9.7 | 0.00 | 0.00 | 0.00 | 56 | 1010.8 |
| 20260506015531 | 21 | 159 | 0.0 | 4.8 | 0.00 | 0.00 | 0.00 | 55 | 1010.8 |
| 20260506015034 | 21 | 193 | 0.0 | 8.0 | 0.00 | 0.00 | 0.00 | 53 | 1010.8 |
| 20260506014545 | 22 | 184 | 0.0 | 9.7 | 0.00 | 0.00 | 0.00 | 53 | 1010.6 |
| 20260506014030 | 22 | 133 | 3.2 | 9.7 | 0.00 | 0.00 | 0.00 | 52 | 1010.5 |
| 20260506013531 | 22 | 207 | 1.6 | 12.9 | 0.00 | 0.00 | 0.00 | 50 | 1010.4 |
| 20260506013055 | 22 | 207 | 4.8 | 12.9 | 0.00 | 0.00 | 0.00 | 50 | 1010.4 |
| 20260506012531 | 22 | 210 | 3.2 | 12.9 | 0.00 | 0.00 | 0.00 | 49 | 1010.3 |
| 20260506012031 | 22 | 185 | 1.6 | 12.9 | 0.00 | 0.00 | 0.00 | 49 | 1010.3 |
| 20260506011551 | 22 | 189 | 4.8 | 12.9 | 0.00 | 0.00 | 0.00 | 48 | 1010.3 |
| 20260506011030 | 22 | 209 | 1.6 | 11.3 | 0.00 | 0.00 | 0.00 | 47 | 1010.2 |
| 20260506010530 | 22 | 186 | 1.6 | 8.0 | 0.00 | 0.00 | 0.00 | 47 | 1010.0 |
| 20260506010043 | 22 | 204 | 1.6 | 9.7 | 0.00 | 0.00 | 0.00 | 46 | 1009.9 |
| 20260506005530 | 22 | 181 | 4.8 | 17.7 | 0.00 | 0.00 | 0.00 | 46 | 1009.9 |
| 20260506005032 | 22 | 186 | 4.8 | 17.7 | 0.00 | 0.00 | 0.00 | 46 | 1009.9 |
| 20260506004546 | 22 | 202 | 4.8 | 11.3 | 0.00 | 0.00 | 0.00 | 46 | 1009.7 |
| 20260506004030 | 22 | 185 | 3.2 | 11.3 | 0.00 | 0.00 | 0.00 | 46 | 1009.6 |
| 20260506003530 | 22 | 199 | 3.2 | 9.7 | 0.00 | 0.00 | 0.00 | 46 | 1009.7 |
| 20260506003046 | 23 | 207 | 1.6 | 9.7 | 0.00 | 0.00 | 0.00 | 47 | 1009.6 |
| 20260506002529 | 23 | 171 | 4.8 | 9.7 | 0.00 | 0.00 | 0.00 | 46 | 1009.5 |
| 20260506002033 | 23 | 167 | 3.2 | 8.0 | 0.00 | 0.00 | 0.00 | 46 | 1009.5 |
| 20260506001555 | 23 | 179 | 3.2 | 9.7 | 0.00 | 0.00 | 0.00 | 47 | 1009.4 |
| 20260506001033 | 23 | 223 | 3.2 | 9.7 | 0.00 | 0.00 | 0.00 | 46 | 1009.5 |